,,Stat5,,Stat1,,Stat2,,Stat3,,Stat4,,Wind1,,Wind1,
time,status,PA1M_AVG,status,PR1M_SUM,status,RH1M_AVG,status,SR1M_AVG,status,TA1M_AVG,status,W1dAve1m,status,W1sAve1m,
2003-02-26, 00:00:00,VALID,917.414,VALID,0,VALID,96.7551,VALID,-0.101885,VALID,20.8743,VALID,229,VALID,0.416741,
2003-02-26, 00:01:00,VALID,917.383,VALID,0,VALID,96.8276,VALID,-0.101885,VALID,20.8293,VALID,205,VALID,0.399038,
2003-02-26, 00:02:00,VALID,917.364,VALID,0,VALID,96.8594,VALID,-0.101885,VALID,20.787,VALID,182,VALID,0.244391,
2003-02-26, 00:03:01,VALID,917.361,VALID,0,VALID,96.8352,VALID,-0.118866,VALID,20.7447,VALID,190,VALID,0.289063,
2003-02-26, 00:04:00,VALID,917.362,VALID,0,VALID,96.8556,VALID,-0.101885,VALID,20.7092,VALID,191,VALID,0.395633,
2003-02-26, 00:05:00,VALID,917.373,VALID,0,VALID,96.8785,VALID,-0.101885,VALID,20.6669,VALID,189,VALID,0.337277,
2003-02-26, 00:06:01,VALID,917.392,VALID,0,VALID,96.9014,VALID,-0.0339617,VALID,20.6494,VALID,164,VALID,0.180099,
2003-02-26, 00:07:00,VALID,917.409,VALID,0,VALID,96.9611,VALID,0.0169808,VALID,20.6235,VALID,119,VALID,0.275446,
2003-02-26, 00:08:01,VALID,917.432,VALID,0,VALID,97.1099,VALID,-0.0169808,VALID,20.5977,VALID,76,VALID,0.41645,
2003-02-26, 00:09:01,VALID,917.426,VALID,0,VALID,97.2421,VALID,0,VALID,20.5947,VALID,30,VALID,0.608574,
2003-02-26, 00:10:00,VALID,917.45,VALID,0,VALID,97.2599,VALID,0,VALID,20.5815,VALID,13,VALID,0.342187,
2003-02-26, 00:11:01,VALID,917.457,VALID,0,VALID,97.4062,VALID,0.0169808,VALID,20.5818,VALID,16,VALID,0.404687,
2003-02-26, 00:12:01,VALID,917.46,VALID,0,VALID,97.5422,VALID,0,VALID,20.5947,VALID,14,VALID,0.367388,
2003-02-26, 00:13:00,VALID,917.455,VALID,0,VALID,97.6554,VALID,0,VALID,20.5877,VALID,14,VALID,0.399777,
2003-02-26, 00:14:01,VALID,917.436,VALID,0,VALID,97.8055,VALID,0,VALID,20.6108,VALID,14,VALID,0.190104,
2003-02-26, 00:15:01,VALID,917.42,VALID,0,VALID,97.8601,VALID,0,VALID,20.63,VALID,14,VALID,0.288261,
2003-02-26, 00:16:00,VALID,917.392,VALID,0,VALID,97.8538,VALID,-0.0169808,VALID,20.6238,VALID,14,VALID,0.00870536,
2003-02-26, 00:17:01,VALID,917.343,VALID,0,VALID,97.8919,VALID,-0.0169808,VALID,20.6275,VALID,360,VALID,0.0290179,
2003-02-26, 00:18:01,VALID,917.3,VALID,0,VALID,97.8309,VALID,0,VALID,20.6106,VALID,220,VALID,0.188301,
2003-02-26, 00:19:00,VALID,917.265,VALID,0,VALID,97.7889,VALID,0,VALID,20.6006,VALID,242,VALID,0.0957589,
2003-02-26, 00:20:01,VALID,917.218,VALID,0,VALID,97.6198,VALID,0,VALID,20.5653,VALID,18,VALID,0.682509,
2003-02-26, 00:21:01,VALID,917.185,VALID,0,VALID,97.5664,VALID,0,VALID,20.5322,VALID,22,VALID,0.54988,
2003-02-26, 00:22:00,VALID,917.177,VALID,0,VALID,97.513,VALID,0.0169808,VALID,20.4934,VALID,16,VALID,0.695089,
2003-02-26, 00:23:01,VALID,917.177,VALID,0,VALID,97.4939,VALID,0.0339617,VALID,20.4708,VALID,19,VALID,1.11652,
2003-02-26, 00:24:01,VALID,917.172,VALID,0,VALID,97.5499,VALID,0,VALID,20.4646,VALID,16,VALID,1.35216,
2003-02-26, 00:25:00,VALID,917.196,VALID,0,VALID,97.7076,VALID,0,VALID,20.4579,VALID,21,VALID,1.35625,
2003-02-26, 00:26:01,VALID,917.204,VALID,0,VALID,97.7177,VALID,0.0169808,VALID,20.4482,VALID,25,VALID,1.14952,
2003-02-26, 00:27:01,VALID,917.224,VALID,0,VALID,97.747,VALID,0.0169808,VALID,20.4452,VALID,19,VALID,0.803686,
2003-02-26, 00:28:00,VALID,917.226,VALID,0,VALID,97.7571,VALID,0,VALID,20.4392,VALID,20,VALID,0.751786,
2003-02-26, 00:29:01,VALID,917.229,VALID,0,VALID,97.7228,VALID,0,VALID,20.4158,VALID,14,VALID,0.843973,
2003-02-26, 00:30:01,VALID,917.229,VALID,0,VALID,97.7546,VALID,0.0169808,VALID,20.4295,VALID,11,VALID,0.850962,
2003-02-26, 00:31:00,VALID,917.235,VALID,0,VALID,97.7966,VALID,0,VALID,20.442,VALID,352,VALID,1.16116,
2003-02-26, 00:32:01,VALID,917.228,VALID,0,VALID,97.9403,VALID,0.0169808,VALID,20.4912,VALID,14,VALID,0.59592,
2003-02-26, 00:33:01,VALID,917.22,VALID,0,VALID,97.8322,VALID,0.0169808,VALID,20.5104,VALID,12,VALID,0.639824,
2003-02-26, 00:34:00,VALID,917.186,VALID,0,VALID,97.7724,VALID,0,VALID,20.5131,VALID,2,VALID,0.492411,
2003-02-26, 00:35:01,VALID,917.165,VALID,0,VALID,97.8334,VALID,0.0509425,VALID,20.5452,VALID,336,VALID,0.680804,
2003-02-26, 00:36:01,VALID,917.138,VALID,0,VALID,97.836,VALID,0,VALID,20.5648,VALID,7,VALID,0.675481,
2003-02-26, 00:37:00,VALID,917.123,VALID,0,VALID,97.8652,VALID,0.0169808,VALID,20.6033,VALID,7,VALID,0.903795,
2003-02-26, 00:38:01,VALID,917.11,VALID,0,VALID,97.6567,VALID,0.0169808,VALID,20.5969,VALID,9,VALID,1.05056,
2003-02-26, 00:39:01,VALID,917.113,VALID,0,VALID,97.6974,VALID,0,VALID,20.6068,VALID,7,VALID,0.635016,
2003-02-26, 00:40:00,VALID,917.116,VALID,0,VALID,97.6783,VALID,0.0339617,VALID,20.6399,VALID,8,VALID,0.546652,
2003-02-26, 00:41:01,VALID,917.104,VALID,0,VALID,97.6134,VALID,0,VALID,20.6227,VALID,10,VALID,0.49308,
2003-02-26, 00:42:01,VALID,917.101,VALID,0,VALID,97.6859,VALID,0,VALID,20.6295,VALID,15,VALID,0.69371,
2003-02-26, 00:43:00,VALID,917.082,VALID,0,VALID,97.7419,VALID,0.0169808,VALID,20.6817,VALID,20,VALID,0.887277,
2003-02-26, 00:44:01,VALID,917.078,VALID,0,VALID,97.7241,VALID,-0.0169808,VALID,20.6971,VALID,22,VALID,0.766927,
2003-02-26, 00:45:01,VALID,917.069,VALID,0,VALID,97.6313,VALID,0,VALID,20.7235,VALID,20,VALID,1.04347,
2003-02-26, 00:46:00,VALID,917.068,VALID,0,VALID,97.5448,VALID,0,VALID,20.7267,VALID,28,VALID,0.740625,
2003-02-26, 00:47:01,VALID,917.06,VALID,0,VALID,97.4939,VALID,0,VALID,20.7305,VALID,22,VALID,0.818527,
2003-02-26, 00:48:01,VALID,917.043,VALID,0,VALID,97.4609,VALID,-0.0169808,VALID,20.7367,VALID,20,VALID,0.737179,
2003-02-26, 00:49:00,VALID,917.022,VALID,0,VALID,97.3986,VALID,-0.0169808,VALID,20.7305,VALID,21,VALID,0.75558,
2003-02-26, 00:50:01,VALID,916.995,VALID,0,VALID,97.41,VALID,0.0169808,VALID,20.7232,VALID,30,VALID,0.760417,
2003-02-26, 00:51:01,VALID,916.968,VALID,0,VALID,97.3668,VALID,0,VALID,20.7337,VALID,23,VALID,0.700921,
2003-02-26, 00:52:00,VALID,916.935,VALID,0,VALID,97.3197,VALID,0,VALID,20.7073,VALID,25,VALID,0.466741,
2003-02-26, 00:53:01,VALID,916.91,VALID,0,VALID,97.4253,VALID,0.0169808,VALID,20.7267,VALID,25,VALID,0.442634,
2003-02-26, 00:54:01,VALID,916.906,VALID,0,VALID,97.2638,VALID,0.0169808,VALID,20.7073,VALID,27,VALID,0.435897,
2003-02-26, 00:55:00,VALID,916.922,VALID,0,VALID,97.3375,VALID,0,VALID,20.6742,VALID,29,VALID,0.585268,
2003-02-26, 00:56:01,VALID,916.943,VALID,0,VALID,97.5028,VALID,0,VALID,20.6974,VALID,17,VALID,0.525174,
2003-02-26, 00:57:01,VALID,916.98,VALID,0,VALID,97.6033,VALID,0.0169808,VALID,20.7127,VALID,3,VALID,0.816106,
2003-02-26, 00:58:00,VALID,917.008,VALID,0,VALID,97.6198,VALID,0.0169808,VALID,20.7302,VALID,6,VALID,0.933929,
2003-02-26, 00:59:01,VALID,917.022,VALID,0,VALID,97.5944,VALID,0,VALID,20.7332,VALID,17,VALID,1.0125,
2003-02-26, 01:00:01,VALID,917.041,VALID,0,VALID,97.5779,VALID,0,VALID,20.7459,VALID,10,VALID,1.13642,
2003-02-26, 01:01:00,VALID,917.02,VALID,0,VALID,97.4939,VALID,0,VALID,20.7693,VALID,352,VALID,0.821205,
2003-02-26, 01:02:01,VALID,917.012,VALID,0,VALID,97.4189,VALID,0,VALID,20.7591,VALID,352,VALID,0.54579,
2003-02-26, 01:03:01,VALID,917.009,VALID,0,VALID,97.438,VALID,0,VALID,20.7723,VALID,17,VALID,0.402845,
2003-02-26, 01:04:01,VALID,917.002,VALID,0,VALID,97.4609,VALID,0,VALID,20.7779,VALID,17,VALID,0.255134,
2003-02-26, 01:05:01,VALID,917.006,VALID,0,VALID,97.4545,VALID,0,VALID,20.8038,VALID,17,VALID,0.0227679,
2003-02-26, 01:06:01,VALID,917.003,VALID,0,VALID,97.4202,VALID,0.0169808,VALID,20.8229,VALID,16,VALID,0.105769,
2003-02-26, 01:07:00,VALID,916.99,VALID,0,VALID,97.3744,VALID,0.0169808,VALID,20.8461,VALID,16,VALID,0.139509,
2003-02-26, 01:08:01,VALID,916.968,VALID,0,VALID,97.2714,VALID,0,VALID,20.8623,VALID,16,VALID,0.0598958,
2003-02-26, 01:09:01,VALID,916.965,VALID,0,VALID,97.1938,VALID,0,VALID,20.852,VALID,16,VALID,0.230769,
2003-02-26, 01:10:00,VALID,916.961,VALID,0,VALID,97.1595,VALID,0.0169808,VALID,20.8518,VALID,16,VALID,0.289509,
2003-02-26, 01:11:01,VALID,916.956,VALID,0,VALID,97.2714,VALID,0,VALID,20.8949,VALID,16,VALID,0.00803571,
2003-02-26, 01:12:01,VALID,916.95,VALID,0,VALID,97.1976,VALID,0,VALID,20.9067,VALID,16,VALID,0,
2003-02-26, 01:13:00,VALID,916.928,VALID,0,VALID,97.129,VALID,0,VALID,20.9366,VALID,16,VALID,0,
2003-02-26, 01:14:01,VALID,916.901,VALID,0,VALID,96.9509,VALID,0,VALID,20.9334,VALID,28,VALID,0.177083,
2003-02-26, 01:15:01,VALID,916.862,VALID,0,VALID,96.9077,VALID,0,VALID,20.9304,VALID,32,VALID,0.161659,
2003-02-26, 01:16:01,VALID,916.84,VALID,0,VALID,96.8187,VALID,0.0169808,VALID,20.9202,VALID,29,VALID,0.00625,
2003-02-26, 01:17:01,VALID,916.816,VALID,0,VALID,96.7844,VALID,-0.0169808,VALID,20.8943,VALID,29,VALID,0,
2003-02-26, 01:18:01,VALID,916.796,VALID,0,VALID,96.9357,VALID,0,VALID,20.8914,VALID,29,VALID,0.000801282,
2003-02-26, 01:19:01,VALID,916.797,VALID,0,VALID,97.045,VALID,0.0509425,VALID,20.8879,VALID,29,VALID,0.075,
2003-02-26, 01:20:01,VALID,916.778,VALID,0,VALID,97.0094,VALID,0.0339617,VALID,20.8951,VALID,29,VALID,0,
2003-02-26, 01:21:01,VALID,916.761,VALID,0,VALID,97.0336,VALID,-0.0169808,VALID,20.8981,VALID,29,VALID,0,
2003-02-26, 01:22:01,VALID,916.736,VALID,0,VALID,96.9026,VALID,-0.0339617,VALID,20.8922,VALID,29,VALID,0.0125,
2003-02-26, 01:23:01,VALID,916.719,VALID,0,VALID,96.9942,VALID,-0.0169808,VALID,20.8825,VALID,29,VALID,0.0209821,
2003-02-26, 01:24:01,VALID,916.688,VALID,0,VALID,97.0349,VALID,-0.0169808,VALID,20.8725,VALID,29,VALID,0,
2003-02-26, 01:25:01,VALID,916.701,VALID,0,VALID,97.0934,VALID,-0.0339617,VALID,20.8757,VALID,29,VALID,0,
2003-02-26, 01:26:01,VALID,916.696,VALID,0,VALID,97.1366,VALID,-0.0169808,VALID,20.8954,VALID,29,VALID,0,
2003-02-26, 01:27:01,VALID,916.721,VALID,0,VALID,97.0794,VALID,-0.0169808,VALID,20.8978,VALID,29,VALID,0,
2003-02-26, 01:28:01,VALID,916.727,VALID,0,VALID,97.0501,VALID,-0.0339617,VALID,20.9185,VALID,29,VALID,0,
2003-02-26, 01:29:01,VALID,916.731,VALID,0,VALID,96.984,VALID,-0.0169808,VALID,20.9048,VALID,29,VALID,0,
2003-02-26, 01:30:01,VALID,916.73,VALID,0,VALID,97.0094,VALID,-0.0339617,VALID,20.9046,VALID,29,VALID,0,
2003-02-26, 01:31:01,VALID,916.736,VALID,0,VALID,96.9344,VALID,0,VALID,20.911,VALID,29,VALID,0,
2003-02-26, 01:32:00,VALID,916.749,VALID,0,VALID,96.8047,VALID,0,VALID,20.911,VALID,29,VALID,0,
2003-02-26, 01:33:00,VALID,916.75,VALID,0,VALID,96.8327,VALID,0,VALID,20.911,VALID,29,VALID,0,
2003-02-26, 01:34:00,VALID,916.762,VALID,0,VALID,96.8988,VALID,-0.0169808,VALID,20.9011,VALID,29,VALID,0,
2003-02-26, 01:35:00,VALID,916.766,VALID,0,VALID,96.9293,VALID,0.0169808,VALID,20.911,VALID,23,VALID,0,
2003-02-26, 01:36:00,VALID,916.757,VALID,0,VALID,96.9827,VALID,-0.0169808,VALID,20.9372,VALID,23,VALID,0.00120192,
2003-02-26, 01:37:00,VALID,916.752,VALID,0,VALID,96.9777,VALID,-0.0169808,VALID,20.9498,VALID,23,VALID,0,
2003-02-26, 01:38:00,VALID,916.77,VALID,0,VALID,96.8746,VALID,0,VALID,20.9566,VALID,23,VALID,0,
2003-02-26, 01:39:00,VALID,916.78,VALID,0,VALID,96.8111,VALID,0,VALID,20.9628,VALID,23,VALID,0,
2003-02-26, 01:40:00,VALID,916.773,VALID,0,VALID,96.7996,VALID,0,VALID,20.9854,VALID,23,VALID,0,
2003-02-26, 01:41:00,VALID,916.77,VALID,0,VALID,96.7627,VALID,0,VALID,21.0018,VALID,23,VALID,0.153125,
2003-02-26, 01:42:00,VALID,916.757,VALID,0,VALID,96.6432,VALID,0.0169808,VALID,21.0075,VALID,23,VALID,0.0434696,
2003-02-26, 01:43:00,VALID,916.741,VALID,0,VALID,96.3609,VALID,0,VALID,20.9819,VALID,23,VALID,0.0863839,
2003-02-26, 01:44:00,VALID,916.711,VALID,0,VALID,96.2999,VALID,0.0169808,VALID,20.9595,VALID,23,VALID,0.0709635,
2003-02-26, 01:45:00,VALID,916.699,VALID,0,VALID,96.3991,VALID,0,VALID,20.9269,VALID,23,VALID,0,
2003-02-26, 01:46:00,VALID,916.707,VALID,0,VALID,96.5784,VALID,0,VALID,20.9374,VALID,23,VALID,0,
2003-02-26, 01:47:00,VALID,916.702,VALID,0,VALID,96.6915,VALID,0,VALID,20.9269,VALID,23,VALID,0,
2003-02-26, 01:48:00,VALID,916.698,VALID,0,VALID,96.6992,VALID,0,VALID,20.9329,VALID,23,VALID,0,
2003-02-26, 01:49:00,VALID,916.692,VALID,0,VALID,96.7246,VALID,0,VALID,20.9496,VALID,23,VALID,0,
2003-02-26, 01:50:00,VALID,916.69,VALID,0,VALID,96.6508,VALID,0.0339617,VALID,20.9431,VALID,23,VALID,0.000868056,
2003-02-26, 01:51:00,VALID,916.684,VALID,0,VALID,96.7653,VALID,0.0169808,VALID,20.9455,VALID,23,VALID,0.161258,
2003-02-26, 01:52:00,VALID,916.666,VALID,0,VALID,96.736,VALID,0.0509425,VALID,20.9558,VALID,23,VALID,0.330357,
2003-02-26, 01:53:00,VALID,916.653,VALID,0,VALID,96.8251,VALID,0,VALID,20.9655,VALID,20,VALID,0.811384,
2003-02-26, 01:54:00,VALID,916.653,VALID,0,VALID,96.7831,VALID,0,VALID,20.9916,VALID,21,VALID,1.0014,
2003-02-26, 01:55:00,VALID,916.641,VALID,0,VALID,96.6814,VALID,0.0169808,VALID,20.9911,VALID,16,VALID,1.27813,
2003-02-26, 01:56:00,VALID,916.624,VALID,0,VALID,96.558,VALID,0,VALID,20.9881,VALID,17,VALID,1.19227,
2003-02-26, 01:57:00,VALID,916.615,VALID,0,VALID,96.5262,VALID,0,VALID,20.9916,VALID,22,VALID,0.963742,
2003-02-26, 01:58:00,VALID,916.613,VALID,0,VALID,96.4448,VALID,0,VALID,20.9552,VALID,23,VALID,0.811384,
2003-02-26, 01:59:00,VALID,916.639,VALID,0,VALID,96.5351,VALID,0,VALID,20.9593,VALID,16,VALID,0.284598,
2003-02-26, 02:00:00,VALID,916.669,VALID,0,VALID,96.5974,VALID,-0.0169808,VALID,20.9426,VALID,16,VALID,0,
2003-02-26, 02:01:00,VALID,916.688,VALID,0,VALID,96.6102,VALID,0,VALID,20.9587,VALID,16,VALID,0,
2003-02-26, 02:02:00,VALID,916.697,VALID,0,VALID,96.558,VALID,0.0169808,VALID,20.9819,VALID,13,VALID,0,
2003-02-26, 02:03:00,VALID,916.686,VALID,0,VALID,96.483,VALID,0.0169808,VALID,20.9849,VALID,5,VALID,0,
2003-02-26, 02:04:00,VALID,916.663,VALID,0,VALID,96.4245,VALID,0,VALID,20.9946,VALID,5,VALID,0,
2003-02-26, 02:05:00,VALID,916.631,VALID,0,VALID,96.4169,VALID,0.0169808,VALID,21.0145,VALID,5,VALID,0,
2003-02-26, 02:06:00,VALID,916.637,VALID,0,VALID,96.3825,VALID,0.0339617,VALID,21.0204,VALID,5,VALID,0,
2003-02-26, 02:07:00,VALID,916.617,VALID,0,VALID,96.2935,VALID,0.0169808,VALID,21.0401,VALID,5,VALID,0,
2003-02-26, 02:08:00,VALID,916.603,VALID,0,VALID,96.1142,VALID,0,VALID,21.0304,VALID,6,VALID,0,
2003-02-26, 02:09:00,VALID,916.589,VALID,0,VALID,96.057,VALID,0,VALID,21.0264,VALID,6,VALID,0,
2003-02-26, 02:10:00,VALID,916.571,VALID,0,VALID,96.0456,VALID,0,VALID,21.0458,VALID,11,VALID,0.168973,
2003-02-26, 02:11:00,VALID,916.57,VALID,0,VALID,96.0354,VALID,0,VALID,21.066,VALID,12,VALID,0.345982,
2003-02-26, 02:12:00,VALID,916.551,VALID,0,VALID,96.0672,VALID,0.0169808,VALID,21.0719,VALID,5,VALID,0.414864,
2003-02-26, 02:13:00,VALID,916.536,VALID,0,VALID,95.9998,VALID,0,VALID,21.0819,VALID,351,VALID,0.483036,
2003-02-26, 02:14:00,VALID,916.515,VALID,0,VALID,95.893,VALID,0.0339617,VALID,21.059,VALID,360,VALID,0.520833,
2003-02-26, 02:15:00,VALID,916.484,VALID,0,VALID,95.851,VALID,0.0169808,VALID,21.0331,VALID,14,VALID,0.6875,
2003-02-26, 02:16:00,VALID,916.462,VALID,0,VALID,96.0252,VALID,0,VALID,21.0142,VALID,16,VALID,0.68192,
2003-02-26, 02:17:00,VALID,916.444,VALID,0,VALID,96.1333,VALID,0.0169808,VALID,21.0142,VALID,3,VALID,0.615625,
2003-02-26, 02:18:00,VALID,916.438,VALID,0,VALID,95.9388,VALID,-0.0169808,VALID,20.949,VALID,355,VALID,0.625601,
2003-02-26, 02:19:00,VALID,916.452,VALID,0,VALID,96.1587,VALID,-0.0169808,VALID,20.9404,VALID,17,VALID,0.531696,
2003-02-26, 02:20:00,VALID,916.458,VALID,0,VALID,96.1842,VALID,0,VALID,20.9498,VALID,17,VALID,0.702691,
2003-02-26, 02:21:00,VALID,916.467,VALID,0,VALID,96.2134,VALID,0,VALID,20.9269,VALID,17,VALID,0.497196,
2003-02-26, 02:22:00,VALID,916.47,VALID,0,VALID,96.2783,VALID,0,VALID,20.9242,VALID,2,VALID,0.607366,
2003-02-26, 02:23:00,VALID,916.453,VALID,0,VALID,96.3444,VALID,-0.0169808,VALID,20.9075,VALID,12,VALID,0.790402,
2003-02-26, 02:24:00,VALID,916.427,VALID,0,VALID,96.2948,VALID,-0.0339617,VALID,20.8986,VALID,17,VALID,1.08253,
2003-02-26, 02:25:00,VALID,916.405,VALID,0,VALID,96.3279,VALID,0,VALID,20.8722,VALID,12,VALID,0.955357,
2003-02-26, 02:26:00,VALID,916.385,VALID,0,VALID,96.2643,VALID,-0.0169808,VALID,20.8528,VALID,13,VALID,1.11415,
2003-02-26, 02:27:00,VALID,916.377,VALID,0,VALID,96.2834,VALID,-0.0169808,VALID,20.8399,VALID,11,VALID,0.915465,
2003-02-26, 02:28:00,VALID,916.35,VALID,0,VALID,96.3355,VALID,0.0169808,VALID,20.8402,VALID,15,VALID,0.895312,
2003-02-26, 02:29:00,VALID,916.323,VALID,0,VALID,96.38,VALID,-0.0169808,VALID,20.8162,VALID,13,VALID,0.767634,
2003-02-26, 02:30:00,VALID,916.323,VALID,0,VALID,96.3686,VALID,-0.0169808,VALID,20.8302,VALID,13,VALID,0.859976,
2003-02-26, 02:31:00,VALID,916.317,VALID,0,VALID,96.3304,VALID,0,VALID,20.8178,VALID,29,VALID,0.964732,
2003-02-26, 02:32:00,VALID,916.317,VALID,0,VALID,96.5059,VALID,0,VALID,20.8041,VALID,22,VALID,0.501736,
2003-02-26, 02:33:00,VALID,916.327,VALID,0,VALID,96.4868,VALID,0,VALID,20.8105,VALID,13,VALID,0.532652,
2003-02-26, 02:34:00,VALID,916.329,VALID,0,VALID,96.4855,VALID,0,VALID,20.7871,VALID,14,VALID,0.54308,
2003-02-26, 02:35:00,VALID,916.333,VALID,0,VALID,96.4563,VALID,0,VALID,20.7914,VALID,19,VALID,0.724777,
2003-02-26, 02:36:00,VALID,916.334,VALID,0,VALID,96.6458,VALID,0,VALID,20.7909,VALID,23,VALID,0.551282,
2003-02-26, 02:37:00,VALID,916.319,VALID,0,VALID,96.6674,VALID,0,VALID,20.7879,VALID,23,VALID,0.767187,
2003-02-26, 02:38:00,VALID,916.299,VALID,0,VALID,96.7144,VALID,0,VALID,20.7944,VALID,19,VALID,0.76671,
2003-02-26, 02:39:00,VALID,916.291,VALID,0,VALID,96.7348,VALID,-0.0169808,VALID,20.7879,VALID,18,VALID,0.565304,
2003-02-26, 02:40:00,VALID,916.281,VALID,0,VALID,96.5084,VALID,0,VALID,20.772,VALID,23,VALID,0.680357,
2003-02-26, 02:41:00,VALID,916.264,VALID,0,VALID,96.5428,VALID,-0.0169808,VALID,20.7429,VALID,22,VALID,0.625223,
2003-02-26, 02:42:00,VALID,916.24,VALID,0,VALID,96.6686,VALID,-0.0169808,VALID,20.72,VALID,14,VALID,0.619191,
2003-02-26, 02:43:00,VALID,916.254,VALID,0,VALID,96.6992,VALID,-0.0169808,VALID,20.727,VALID,7,VALID,0.485268,
2003-02-26, 02:44:00,VALID,916.259,VALID,0,VALID,96.7157,VALID,0,VALID,20.727,VALID,7,VALID,0.322917,
2003-02-26, 02:45:00,VALID,916.265,VALID,0,VALID,96.7615,VALID,0,VALID,20.7335,VALID,2,VALID,0.284856,
2003-02-26, 02:46:00,VALID,916.266,VALID,0,VALID,96.7297,VALID,0,VALID,20.7459,VALID,2,VALID,0.360268,
2003-02-26, 02:47:00,VALID,916.272,VALID,0,VALID,96.6013,VALID,-0.0169808,VALID,20.7305,VALID,358,VALID,0.307813,
2003-02-26, 02:48:00,VALID,916.274,VALID,0,VALID,96.7602,VALID,0,VALID,20.7429,VALID,356,VALID,0.194712,
2003-02-26, 02:49:00,VALID,916.273,VALID,0,VALID,96.7818,VALID,-0.0169808,VALID,20.7658,VALID,356,VALID,0.00446429,
2003-02-26, 02:50:00,VALID,916.259,VALID,0,VALID,96.6623,VALID,-0.0169808,VALID,20.7655,VALID,356,VALID,0.212674,
2003-02-26, 02:51:00,VALID,916.262,VALID,0,VALID,96.5644,VALID,-0.0679233,VALID,20.7693,VALID,356,VALID,0.0805288,
2003-02-26, 02:52:00,VALID,916.255,VALID,0,VALID,96.6979,VALID,-0.0169808,VALID,20.769,VALID,356,VALID,0.0444196,
2003-02-26, 02:53:00,VALID,916.256,VALID,0,VALID,96.7017,VALID,0,VALID,20.7981,VALID,356,VALID,0,
2003-02-26, 02:54:00,VALID,916.245,VALID,0,VALID,96.6521,VALID,-0.0169808,VALID,20.8081,VALID,356,VALID,0,
2003-02-26, 02:55:00,VALID,916.232,VALID,0,VALID,96.6254,VALID,-0.0339617,VALID,20.814,VALID,356,VALID,0,
2003-02-26, 02:56:00,VALID,916.216,VALID,0,VALID,96.5924,VALID,0,VALID,20.8305,VALID,356,VALID,0.0429688,
2003-02-26, 02:57:00,VALID,916.209,VALID,0,VALID,96.4474,VALID,-0.0169808,VALID,20.8272,VALID,356,VALID,0.236579,
2003-02-26, 02:58:00,VALID,916.196,VALID,0,VALID,96.1778,VALID,-0.0339617,VALID,20.8208,VALID,356,VALID,0.404464,
2003-02-26, 02:59:00,VALID,916.191,VALID,0,VALID,96.0239,VALID,0,VALID,20.7979,VALID,344,VALID,0.453125,
2003-02-26, 03:00:00,VALID,916.192,VALID,0,VALID,96.0341,VALID,-0.0169808,VALID,20.8078,VALID,329,VALID,0.219752,
2003-02-26, 03:01:00,VALID,916.206,VALID,0,VALID,96.1486,VALID,-0.0169808,VALID,20.8305,VALID,279,VALID,0.495536,
2003-02-26, 03:02:00,VALID,916.202,VALID,0,VALID,96.324,VALID,0,VALID,20.8429,VALID,272,VALID,0.268446,
2003-02-26, 03:03:00,VALID,916.204,VALID,0,VALID,96.3991,VALID,0,VALID,20.8329,VALID,268,VALID,0.268429,
2003-02-26, 03:04:00,VALID,916.213,VALID,0,VALID,96.4703,VALID,0,VALID,20.8073,VALID,268,VALID,0.273214,
2003-02-26, 03:05:00,VALID,916.218,VALID,0,VALID,96.6699,VALID,-0.0169808,VALID,20.8016,VALID,268,VALID,0.0100446,
2003-02-26, 03:06:00,VALID,916.223,VALID,0,VALID,96.8721,VALID,-0.0169808,VALID,20.7779,VALID,268,VALID,0,
2003-02-26, 03:07:00,VALID,916.22,VALID,0,VALID,96.9598,VALID,-0.0169808,VALID,20.7688,VALID,268,VALID,0.0845982,
2003-02-26, 03:08:00,VALID,916.206,VALID,0,VALID,97.0463,VALID,0,VALID,20.7526,VALID,268,VALID,0.0167101,
2003-02-26, 03:09:00,VALID,916.199,VALID,0,VALID,97.1595,VALID,0,VALID,20.7623,VALID,268,VALID,0,
2003-02-26, 03:10:00,VALID,916.167,VALID,0,VALID,97.1519,VALID,0,VALID,20.7628,VALID,268,VALID,0,
2003-02-26, 03:11:00,VALID,916.148,VALID,0,VALID,97.1074,VALID,-0.0339617,VALID,20.7496,VALID,268,VALID,0,
2003-02-26, 03:12:00,VALID,916.161,VALID,0,VALID,97.1074,VALID,0,VALID,20.7461,VALID,268,VALID,0,
2003-02-26, 03:13:00,VALID,916.173,VALID,0,VALID,96.9802,VALID,-0.0339617,VALID,20.7394,VALID,268,VALID,0,
2003-02-26, 03:14:00,VALID,916.177,VALID,0,VALID,96.9878,VALID,-0.0169808,VALID,20.7591,VALID,268,VALID,0,
2003-02-26, 03:15:00,VALID,916.167,VALID,0,VALID,96.9115,VALID,0,VALID,20.7847,VALID,268,VALID,0,
2003-02-26, 03:16:00,VALID,916.144,VALID,0,VALID,96.6737,VALID,0,VALID,20.8083,VALID,268,VALID,0,
2003-02-26, 03:17:00,VALID,916.111,VALID,0,VALID,96.422,VALID,0,VALID,20.7785,VALID,262,VALID,0.108929,
2003-02-26, 03:18:00,VALID,916.099,VALID,0,VALID,96.427,VALID,-0.0169808,VALID,20.7787,VALID,220,VALID,0.193309,
2003-02-26, 03:19:00,VALID,916.091,VALID,0,VALID,96.4843,VALID,0,VALID,20.7521,VALID,219,VALID,0.128348,
2003-02-26, 03:20:00,VALID,916.083,VALID,0,VALID,96.5479,VALID,0,VALID,20.769,VALID,219,VALID,0.0876736,
2003-02-26, 03:21:00,VALID,916.084,VALID,0,VALID,96.5351,VALID,0.0169808,VALID,20.7588,VALID,219,VALID,0.102764,
2003-02-26, 03:22:00,VALID,916.059,VALID,0,VALID,96.5008,VALID,-0.0169808,VALID,20.7653,VALID,218,VALID,0.106473,
2003-02-26, 03:23:00,VALID,916.054,VALID,0,VALID,96.4169,VALID,0.0169808,VALID,20.7553,VALID,218,VALID,0.100223,
2003-02-26, 03:24:00,VALID,916.026,VALID,0,VALID,96.3482,VALID,0.0509425,VALID,20.7389,VALID,216,VALID,0.122997,
2003-02-26, 03:25:00,VALID,916.024,VALID,0,VALID,96.3507,VALID,0.0169808,VALID,20.7195,VALID,216,VALID,0.0209821,
2003-02-26, 03:26:00,VALID,916.017,VALID,0,VALID,96.174,VALID,0,VALID,20.6971,VALID,216,VALID,0.207465,
2003-02-26, 03:27:00,VALID,916.025,VALID,0,VALID,96.0494,VALID,0.0169808,VALID,20.6712,VALID,216,VALID,0.191707,
2003-02-26, 03:28:00,VALID,916.033,VALID,0,VALID,95.9349,VALID,0.0339617,VALID,20.6553,VALID,216,VALID,0.0241071,
2003-02-26, 03:29:00,VALID,916.027,VALID,0,VALID,95.7607,VALID,0,VALID,20.6456,VALID,216,VALID,0.0430804,
2003-02-26, 03:30:00,VALID,916.028,VALID,0,VALID,95.6005,VALID,0.0169808,VALID,20.6421,VALID,216,VALID,0,
2003-02-26, 03:31:00,VALID,916.002,VALID,0,VALID,95.5446,VALID,0.0169808,VALID,20.6621,VALID,216,VALID,0.0314732,
2003-02-26, 03:32:00,VALID,915.991,VALID,0,VALID,95.4059,VALID,0,VALID,20.6688,VALID,216,VALID,0.0297309,
2003-02-26, 03:33:00,VALID,915.982,VALID,0,VALID,95.3475,VALID,0,VALID,20.6648,VALID,216,VALID,0.00120192,
2003-02-26, 03:34:00,VALID,915.984,VALID,0,VALID,95.2991,VALID,0.0339617,VALID,20.6553,VALID,216,VALID,0.0145089,
2003-02-26, 03:35:00,VALID,916.011,VALID,0,VALID,95.2839,VALID,0,VALID,20.6526,VALID,216,VALID,0.00178571,
2003-02-26, 03:36:00,VALID,916.016,VALID,0,VALID,95.2775,VALID,0.0169808,VALID,20.6365,VALID,216,VALID,0,
2003-02-26, 03:37:00,VALID,916.057,VALID,0,VALID,95.2928,VALID,0,VALID,20.6168,VALID,216,VALID,0,
2003-02-26, 03:38:00,VALID,916.074,VALID,0,VALID,95.3042,VALID,0,VALID,20.6074,VALID,216,VALID,0,
2003-02-26, 03:39:00,VALID,916.082,VALID,0,VALID,95.3017,VALID,0.0169808,VALID,20.5874,VALID,216,VALID,0.0272436,
2003-02-26, 03:40:00,VALID,916.069,VALID,0,VALID,95.4746,VALID,0.0339617,VALID,20.5715,VALID,216,VALID,0.0245536,
2003-02-26, 03:41:00,VALID,916.055,VALID,0,VALID,95.7684,VALID,0.0169808,VALID,20.5583,VALID,159,VALID,0.0667411,
2003-02-26, 03:42:00,VALID,916.051,VALID,0,VALID,95.9769,VALID,-0.0169808,VALID,20.5583,VALID,120,VALID,0,